Regional Weather Roundup
Issued by NWS

Home | Current Version | Previous Version | Text Only | Print | Product List | Glossary Off
Versions: 1 2 3 4 5 6 7 8 9 10 11 12 13 14 15 16 17 18 19 20 21 22 23 24 25 26 27 28 29 30 31 32 33 34 35 36 37 38 39 40 41 42 43 44 45 46 47 48 49 50

000
ASUS45 KCYS 262010
RWRWY

WYOMING REGIONAL WEATHER ROUNDUP
NATIONAL WEATHER SERVICE CHEYENNE WY
200 PM MDT SUN APR 26 2015

NOTE:  "FAIR" INDICATES FEW OR NO CLOUDS BELOW 12,000 FEET
WITH NO SIGNIFICANT WEATHER AND/OR OBSTRUCTIONS TO VISIBILITY.

WYZ001-262100-
YELLOWSTONE NATIONAL PARK

CITY           SKY/WX    TMP DP  RH WIND       PRES   REMARKS
LK YELLOWSTONE   N/A     40  31  70 VRB3      29.98R
W YELLOWSTONE  NOT AVBL

$$
WYZ002>013-054>058-071-098>099-262100-
NORTHERN WYOMING

CITY           SKY/WX    TMP DP  RH WIND       PRES   REMARKS
JACKSON        CLOUDY    43  39  87 SE7       29.95R
CODY           CLOUDY    39  37  93 N18       30.03R WCI  30
GREYBULL       LGT RAIN  44  41  89 NW8       30.00R
WORLAND        CLOUDY    43  38  82 NW10      30.00R
SHERIDAN       LGT RAIN  39  35  86 NW6       30.07R WCI  35
BUFFALO        LGT SNOW  35  33  92 NW13      30.05R FOG     WCI  26
GILLETTE       LGT RAIN  42  40  92 N13       30.00R
HULETT         RAIN      43  41  93 NE6       30.01S
NEWCASTLE      LGT RAIN  45  45 100 S17       29.99R

$$
WYZ014>020-022>026-101>103-262100-
CENTRAL WYOMING

CITY           SKY/WX    TMP DP  RH WIND       PRES   REMARKS
BIG PINEY      CLOUDY    44  37  76 N13       29.92R
PINEDALE       CLOUDY    43  37  81 NW14      29.91R
DUBOIS         MOCLDY    41  32  70 E9        29.95R
LANDER         CLOUDY    41  38  89 NE10      29.96R
RIVERTON       LGT RAIN  41  36  82 N14       29.98R
CASPER         CLOUDY    39  34  82 N17       29.96R WCI  30
DOUGLAS        RAIN      46  44  93 CALM      29.94R FOG

$$
WYZ021-027>030-104>119-262100-
SOUTHERN WYOMING

CITY           SKY/WX    TMP DP  RH WIND       PRES   REMARKS
EVANSTON       CLOUDY    37  30  75 NW6       29.97R WCI  32
KEMMERER       CLOUDY    43  32  65 W18G28    29.93R
FORT BRIDGER   CLOUDY    41  34  75 W16G22    29.97R
ROCK SPRINGS   LGT RAIN  44  39  82 NE6       29.90R
DIXON          RAIN      46  39  77 E8        29.86R
RAWLINS        FAIR      52  37  56 NE21G31   29.84S
SARATOGA       CLOUDY    48  36  61 SE12      29.85R
LARAMIE        CLOUDY    47  36  65 SE16G24   29.88R
CHEYENNE       LGT RAIN  42  39  89 SE14      29.91R FOG
TORRINGTON     CLOUDY    46  44  93 E13       29.94R
PINE BLUFFS    LGT RAIN  41  39  93 E13       29.93S

$$


USA.gov is the U.S. government's official web portal to all federal, state and local government web resources and services.